Time+03,TemperatureF,Dew PointF,Humidity,Sea Level PressureIn,VisibilityMPH,Wind Direction,Wind SpeedMPH,Gust SpeedMPH,PrecipitationIn,Events,Conditions,WindDirDegrees,DateUTC
12:00 AM,80.6,66.2,61,29.95,6.2,NNW,5.8,-,N/A,,Partly Cloudy,340,2012-11-03 21:00:00
12:30 AM,80.6,66.2,61,29.95,6.2,NNW,6.9,-,N/A,,Partly Cloudy,340,2012-11-03 21:30:00
1:00 AM,80.6,66.2,61,29.95,6.2,NNW,6.9,-,N/A,,Partly Cloudy,340,2012-11-03 22:00:00
1:30 AM,80.6,66.2,61,29.95,6.2,NNW,6.9,-,N/A,,Partly Cloudy,340,2012-11-03 22:30:00
2:00 AM,80.6,66.2,61,29.95,6.2,NNW,4.6,-,N/A,,Partly Cloudy,330,2012-11-03 23:00:00
2:30 AM,80.6,66.2,61,29.95,6.2,WNW,4.6,-,N/A,,Partly Cloudy,300,2012-11-03 23:30:00
3:00 AM,80,66,53,29.96,6,NW,4.6,,,,Scattered Clouds,320,2012-11-04 00:00:00
3:00 AM,80.6,66.2,61,29.95,6.2,NW,4.6,-,N/A,,Partly Cloudy,320,2012-11-04 00:00:00
3:30 AM,80.6,66.2,61,29.95,6.2,NW,3.5,-,N/A,,Partly Cloudy,310,2012-11-04 00:30:00
4:00 AM,80.6,66.2,61,29.95,6.2,Variable,2.3,-,N/A,,Partly Cloudy,0,2012-11-04 01:00:00
4:30 AM,80.6,66.2,61,29.95,6.2,NW,3.5,-,N/A,,Partly Cloudy,320,2012-11-04 01:30:00
5:00 AM,80.6,66.2,61,29.98,6.2,NNW,3.5,-,N/A,,Partly Cloudy,330,2012-11-04 02:00:00
5:30 AM,80.6,66.2,61,29.98,6.2,NNW,3.5,-,N/A,,Partly Cloudy,330,2012-11-04 02:30:00
6:00 AM,80.6,66.2,61,29.98,6.2,Variable,2.3,-,N/A,,Partly Cloudy,0,2012-11-04 03:00:00
6:30 AM,80.6,66.2,61,29.98,6.2,NW,3.5,-,N/A,,Partly Cloudy,310,2012-11-04 03:30:00
7:00 AM,82.4,66.2,58,30.01,6.2,NW,3.5,-,N/A,,Partly Cloudy,320,2012-11-04 04:00:00
7:30 AM,82.4,66.2,58,30.01,6.2,Variable,2.3,-,N/A,,Scattered Clouds,0,2012-11-04 04:30:00
8:00 AM,82.4,66.2,58,30.01,6.2,North,4.6,-,N/A,,Scattered Clouds,350,2012-11-04 05:00:00
8:30 AM,84.2,64.4,51,30.01,6.2,North,5.8,-,N/A,,Scattered Clouds,10,2012-11-04 05:30:00
9:00 AM,85,64,40,30.03,9,North,6.9,,,,Scattered Clouds,10,2012-11-04 06:00:00
9:00 AM,84.2,64.4,51,30.01,6.2,North,6.9,-,N/A,,Scattered Clouds,10,2012-11-04 06:00:00
9:30 AM,86.0,64.4,48,30.01,6.2,NNE,6.9,-,N/A,,Scattered Clouds,30,2012-11-04 06:30:00
10:00 AM,86.0,64.4,48,30.01,6.2,NNE,5.8,-,N/A,,Scattered Clouds,20,2012-11-04 07:00:00
10:30 AM,86.0,64.4,48,30.01,6.2,NNE,5.8,-,N/A,,Partly Cloudy,20,2012-11-04 07:30:00
11:00 AM,86.0,64.4,48,29.98,6.2,NNE,5.8,-,N/A,,Partly Cloudy,30,2012-11-04 08:00:00
11:30 AM,86.0,66.2,51,29.98,6.2,NNE,6.9,-,N/A,,Partly Cloudy,30,2012-11-04 08:30:00
12:00 PM,87.8,64.4,46,29.95,6.2,North,8.1,-,N/A,,Partly Cloudy,10,2012-11-04 09:00:00
12:30 PM,87.8,66.2,49,29.95,6.2,ENE,8.1,-,N/A,,Partly Cloudy,70,2012-11-04 09:30:00
1:30 PM,86.0,66.2,51,29.95,6.2,NNE,10.4,-,N/A,,Partly Cloudy,20,2012-11-04 10:30:00
2:00 PM,86.0,64.4,48,29.95,6.2,NE,10.4,-,N/A,,Partly Cloudy,50,2012-11-04 11:00:00
2:30 PM,86.0,66.2,51,29.95,6.2,NE,9.2,-,N/A,,Partly Cloudy,40,2012-11-04 11:30:00
3:00 PM,86,67,43,29.95,9,NNE,9.2,,,,Scattered Clouds,30,2012-11-04 12:00:00
3:00 PM,86.0,66.2,51,29.95,6.2,NNE,9.2,-,N/A,,Partly Cloudy,30,2012-11-04 12:00:00
6:30 PM,82.4,68.0,62,29.98,6.2,NNE,4.6,-,N/A,,Partly Cloudy,20,2012-11-04 15:30:00
7:00 PM,82.4,69.8,66,29.98,6.2,North,5.8,-,N/A,,Partly Cloudy,360,2012-11-04 16:00:00
8:00 PM,82.4,69.8,66,29.98,6.2,NNW,9.2,-,N/A,,Partly Cloudy,330,2012-11-04 17:00:00
8:30 PM,80.6,68.0,65,29.98,6.2,NNW,9.2,-,N/A,,Partly Cloudy,340,2012-11-04 17:30:00
9:00 PM,81,68,56,29.99,7,NNW,9.2,,,,Scattered Clouds,340,2012-11-04 18:00:00
9:00 PM,80.6,68.0,65,29.98,6.2,NNW,9.2,-,N/A,,Partly Cloudy,340,2012-11-04 18:00:00
9:30 PM,82.4,64.4,54,29.98,6.2,NNW,6.9,-,N/A,,Partly Cloudy,330,2012-11-04 18:30:00
10:00 PM,80.6,66.2,61,29.98,6.2,NNW,5.8,-,N/A,,Partly Cloudy,340,2012-11-04 19:00:00
10:30 PM,80.6,66.2,61,29.98,6.2,NNW,5.8,-,N/A,,Partly Cloudy,340,2012-11-04 19:30:00
11:00 PM,80.6,66.2,61,29.98,6.2,NNW,5.8,-,N/A,,Partly Cloudy,340,2012-11-04 20:00:00
11:30 PM,80.6,68.0,65,29.98,-9999.0,Variable,2.3,-,N/A,,Clear,0,2012-11-04 20:30:00